Flag for Madagascar Weather past 2 weeks in Antananarivo, Madagascar

Now
72 °F

Passing clouds.


Feels Like: 76 °F
Forecast: 54 / 72 °F
Wind: 6 mph from Southeast

Location: Antananarivo / Ivato

Current Time: May 28, 2015 at 4:03:48 PM

Latest Report: May 28, 2015 at 3:30 PM


Visibility: N/A

Pressure: 30.18 "Hg

Humidity: 57%

Dew point: 55 °F

Location of AntananarivoLocation

Historic Weather in Antananarivo — Graph

°F

Antananarivo temperature yesterday

Maximum temperature yesterday: 70 °F (at 12:30 PM)
Minimum temperature yesterday: 55 °F (at 9:00 PM)
Average temperature yesterday: 62 °F

Past Weeks' High & Low Weather Summary

 TemperatureHumidityPressure
High81 °F (May 13, 3:00 PM)100% (May 14, 1:00 AM)30.33 "Hg (May 14, 1:00 AM)
Low50 °F (May 28, 5:30 AM)37% (May 14, 2:00 PM)30.09 "Hg (May 13, 3:00 PM)
Average64 °F88%30.24 "Hg
* Reported May 13 3:00 PM — May 28 3:00 PM, Antananarivo, Weather by CustomWeather, © 2015

Note: Actual official high and low records may vary slightly from our data, if they occured in-between our weather recording intervals... More about our weather records

Advertising

Antananarivo weather history for previous 24 hours

 ConditionsComfort  
Time TempWeatherWind HumidityBarometerVisibility
3:00 PM
Thu, May 28
72 °FPassing clouds.6 mph57%30.18 "HgN/A
2:30 PM73 °FPassing clouds.5 mph57%30.18 "HgN/A
2:00 PM72 °FPassing clouds.6 mph61%30.18 "HgN/A
1:30 PM72 °FPassing clouds.8 mph61%30.18 "HgN/A
1:00 PM70 °FPassing clouds.8 mph69%30.21 "HgN/A
12:30 PM70 °FPassing clouds.5 mph64%30.24 "HgN/A
12:00 PM68 °FPassing clouds.7 mph69%30.24 "HgN/A
11:30 AM68 °FPassing clouds.6 mph69%30.24 "HgN/A
11:00 AM68 °FPassing clouds.6 mph69%30.27 "HgN/A
10:30 AM66 °FPassing clouds.7 mph73%30.27 "HgN/A
10:00 AM63 °FPassing clouds.7 mph77%30.30 "HgN/A
9:30 AM61 °FPassing clouds.10 mph83%30.30 "HgN/A
9:00 AM61 °FPassing clouds.8 mph88%30.30 "HgN/A
8:30 AM59 °FPassing clouds.5 mph94%30.30 "HgN/A
8:00 AM57 °FPassing clouds.7 mph100%30.30 "HgN/A
7:30 AM57 °FPassing clouds.7 mph100%30.27 "HgN/A
7:00 AM55 °FPassing clouds.No wind100%30.27 "HgN/A
6:30 AM52 °FPassing clouds.No wind100%30.27 "HgN/A
6:00 AM50 °FPassing clouds.No wind100%30.27 "HgN/A
5:30 AM50 °FPassing clouds.No wind100%30.24 "HgN/A
5:00 AM52 °FPassing clouds.No wind100%30.24 "HgN/A
4:00 AM52 °FPassing clouds.No wind100%30.24 "HgN/A
3:00 AM54 °FPassing clouds.No wind100%30.24 "HgN/A
2:00 AM54 °FPassing clouds.No wind100%30.27 "HgN/A
1:00 AM55 °FPassing clouds.2 mph100%30.27 "HgN/A
12:30 AM55 °FPassing clouds.No wind100%30.27 "HgN/A
12:00 AM55 °FPassing clouds.No wind100%30.30 "HgN/A
11:00 PM
Wed, May 27
55 °FPassing clouds.3 mph100%30.30 "HgN/A
10:30 PM55 °FPassing clouds.3 mph100%30.30 "HgN/A
10:00 PM55 °FPassing clouds.5 mph100%30.30 "HgN/A
9:30 PM55 °FPassing clouds.No wind100%30.30 "HgN/A
9:00 PM55 °FPassing clouds.5 mph100%30.30 "HgN/A
8:30 PM57 °FPassing clouds.5 mph100%30.30 "HgN/A
8:00 PM59 °FPassing clouds.6 mph100%30.27 "HgN/A
7:30 PM59 °FPassing clouds.No wind100%30.27 "HgN/A
7:00 PM59 °FPassing clouds.5 mph100%30.27 "HgN/A
6:30 PM61 °FPassing clouds.6 mph94%30.24 "HgN/A
6:00 PM63 °FPassing clouds.7 mph88%30.24 "HgN/A
5:30 PM64 °FPassing clouds.7 mph83%30.24 "HgN/A
5:00 PM66 °FScattered clouds.3 mph73%30.24 "HgN/A
4:30 PM66 °FScattered clouds.6 mph78%30.24 "HgN/A
4:00 PM68 °FScattered clouds.7 mph69%30.24 "HgN/A
Weather by CustomWeather, © 2015

See weather overviewHow to use our weather pages